FW1098 Weather Reports


time (UTC)temp
F
wind
direction
speed
knots
gust
knots
rain 1hr
in
rain 24hr
in
rain mn
in
humidity
%
barometer
mb
20260905014533 81 321 0.0 0.0 0.00 0.00 0.00 80 1014.8
20260905013033 82 321 0.0 0.0 0.00 0.00 0.00 80 1014.8
20260905011532 82 321 0.0 0.0 0.00 0.00 0.00 79 1014.7
20260905010032 83 321 0.0 0.0 0.00 0.00 0.00 77 1014.4
20260905004530 84 321 0.0 0.0 0.00 0.00 0.00 75 1014.4
20260905003031 85 321 0.0 0.0 0.00 0.00 0.00 73 1014.2
20260905001533 86 321 0.0 0.0 0.00 0.00 0.00 72 1014.0
20260905000034 86 321 0.0 0.0 0.00 0.00 0.00 71 1014.1
20260904234539 87 321 0.0 0.0 0.00 0.00 0.00 71 1013.9
20260904233029 87 321 0.0 0.0 0.00 0.00 0.00 71 1013.7
20260904231528 88 321 0.0 0.0 0.00 0.00 0.00 68 1013.7
20260904230028 89 321 0.0 0.0 0.00 0.00 0.00 67 1013.7
20260904224537 90 321 0.0 0.0 0.00 0.00 0.00 64 1013.7
20260904223027 91 321 0.0 0.9 0.00 0.00 0.00 60 1013.6
20260904221528 94 321 0.0 4.3 0.00 0.00 0.00 54 1013.5
20260904220039 95 321 0.9 3.5 0.00 0.00 0.00 50 1013.4
20260904214533 95 321 0.0 2.6 0.00 0.00 0.00 53 1013.5
20260904213023 96 321 0.0 2.6 0.00 0.00 0.00 53 1013.6
20260904211526 95 321 0.0 2.6 0.00 0.00 0.00 52 1013.6
20260904210026 95 321 0.0 1.7 0.00 0.00 0.00 51 1013.7
20260904204519 96 321 0.9 2.6 0.00 0.00 0.00 49 1013.9
20260904203031 96 324 0.9 3.5 0.00 0.00 0.00 48 1014.0
20260904201516 96 324 0.0 3.5 0.00 0.00 0.00 50 1014.4
20260904200014 96 325 0.0 3.5 0.00 0.00 0.00 50 1014.5
20260904194520 95 325 0.0 2.6 0.00 0.00 0.00 49 1014.7
20260904193011 95 338 0.0 5.2 0.00 0.00 0.00 52 1014.9
20260904191510 95 309 1.7 5.2 0.00 0.00 0.00 55 1015.0
20260904190006 95 337 1.7 5.2 0.00 0.00 0.00 52 1015.2
20260904184503 95 325 0.9 3.5 0.00 0.00 0.00 54 1015.5
20260904183002 94 296 1.7 4.3 0.00 0.00 0.00 56 1015.7
20260904181500 93 355 0.9 7.8 0.00 0.00 0.00 57 1015.8
20260904180119 93 346 0.9 4.3 0.00 0.00 0.00 58 1015.9
20260904174607 93 344 0.9 4.3 0.00 0.00 0.00 58 1016.1
20260904173053 92 360 0.0 4.3 0.00 0.00 0.00 61 1016.2
20260904171554 91 360 0.9 3.5 0.00 0.00 0.00 64 1016.3
20260904170054 91 348 0.9 3.5 0.00 0.00 0.00 65 1016.4
20260904164546 89 347 1.7 7.0 0.00 0.00 0.00 67 1016.6
20260904163043 90 317 0.0 3.5 0.00 0.00 0.00 67 1016.8
20260904161543 89 319 1.7 4.3 0.00 0.00 0.00 67 1017.1
20260904160037 86 306 0.0 2.6 0.00 0.00 0.00 74 1017.3
20260904154535 85 345 0.0 1.7 0.00 0.00 0.00 76 1017.4
20260904153043 86 350 0.9 4.3 0.00 0.00 0.00 76 1017.5
20260904151533 85 231 0.9 2.6 0.00 0.00 0.00 79 1017.5
20260904150035 83 231 0.9 2.6 0.00 0.00 0.00 81 1017.5
20260904144525 82 229 0.9 3.5 0.00 0.00 0.00 83 1017.3
20260904143024 82 220 0.9 4.3 0.00 0.00 0.00 85 1017.3
20260904141532 81 222 0.0 0.0 0.00 0.00 0.00 89 1017.4
20260904140117 78 214 0.0 0.0 0.00 0.00 0.00 96 1017.5
20260904134516 77 214 0.0 0.0 0.00 0.00 0.00 97 1017.4
20260904133014 77 214 0.0 1.7 0.00 0.00 0.00 97 1017.4
20260904131512 77 214 0.0 0.9 0.00 0.00 0.00 97 1017.5
20260904130013 76 214 0.0 0.9 0.00 0.00 0.00 97 1017.6
20260904124509 75 214 0.0 0.9 0.00 0.00 0.00 97 1017.5
20260904123006 74 214 0.0 1.7 0.00 0.00 0.00 96 1017.4
20260904121504 72 214 0.0 0.0 0.00 0.00 0.00 96 1017.5
20260904120010 71 214 0.0 0.0 0.00 0.00 0.00 95 1017.5
20260904114603 71 214 0.0 0.0 0.00 0.00 0.00 95 1017.4
20260904113058 70 214 0.0 0.0 0.00 0.00 0.00 94 1017.2
20260904111554 70 214 0.0 0.0 0.00 0.00 0.00 94 1017.2
20260904110053 70 214 0.0 0.0 0.00 0.00 0.00 93 1017.0
20260904104553 70 214 0.0 0.0 0.00 0.00 0.00 93 1016.8
20260904103050 70 214 0.0 0.0 0.00 0.00 0.00 93 1016.6
20260904101602 70 214 0.0 0.0 0.00 0.00 0.00 93 1016.5
20260904100049 71 214 0.0 0.9 0.00 0.00 0.00 93 1016.4
20260904094551 71 214 0.0 0.9 0.00 0.00 0.00 93 1016.4
20260904093048 71 214 0.0 0.0 0.00 0.00 0.00 93 1016.4
20260904091547 71 214 0.0 0.0 0.00 0.00 0.00 93 1016.1
20260904090046 71 214 0.0 0.0 0.00 0.00 0.00 92 1015.9
20260904084549 72 214 0.0 0.0 0.00 0.00 0.00 92 1015.8
20260904083043 72 214 0.0 0.0 0.00 0.00 0.00 92 1015.8
20260904081541 72 214 0.0 0.0 0.00 0.00 0.00 92 1015.7
20260904080045 72 214 0.0 0.0 0.00 0.00 0.00 92 1015.7
20260904074539 72 214 0.0 0.0 0.00 0.00 0.00 91 1015.5
20260904073041 73 214 0.0 0.0 0.00 0.00 0.00 90 1015.6
20260904071537 73 214 0.0 0.0 0.00 0.00 0.00 90 1015.7
20260904070043 73 214 0.0 0.0 0.00 0.00 0.00 90 1015.8
20260904064539 74 214 0.0 0.0 0.00 0.00 0.00 90 1015.9
20260904063031 74 214 0.0 0.0 0.00 0.00 0.00 90 1016.0
20260904061537 74 214 0.0 0.0 0.00 0.00 0.00 90 1016.2
20260904060042 75 214 0.0 0.0 0.00 0.00 0.00 90 1016.4
20260904054538 75 214 0.0 0.0 0.00 0.00 0.00 89 1016.6
20260904053024 75 214 0.0 0.0 0.00 0.00 0.00 89 1016.7
20260904051522 75 214 0.0 0.0 0.00 0.00 0.00 88 1016.7
20260904050036 76 214 0.0 0.0 0.00 0.00 0.00 88 1016.9
20260904044521 76 214 0.0 0.0 0.00 0.00 0.00 88 1017.0
20260904043017 76 214 0.0 0.0 0.00 0.00 0.00 87 1017.0
20260904041520 77 214 0.0 0.0 0.00 0.00 0.00 87 1017.1
20260904040028 77 214 0.0 0.0 0.00 0.00 0.00 86 1017.1
20260904034514 77 214 0.0 0.0 0.00 0.00 0.00 86 1017.2
20260904033012 78 214 0.0 0.0 0.00 0.00 0.00 85 1017.2
20260904031519 78 214 0.0 0.0 0.00 0.00 0.00 84 1017.1
20260904030015 79 214 0.0 0.0 0.00 0.00 0.00 83 1017.3
20260904024512 79 214 0.0 0.0 0.00 0.00 0.00 82 1017.3
20260904023016 79 214 0.0 0.0 0.00 0.00 0.00 81 1017.2
20260904021525 80 214 0.0 0.0 0.00 0.00 0.00 80 1016.9
20260904020010 81 214 0.0 0.0 0.00 0.00 0.00 80 1016.9